map of BGO home
BGO - Airport
Location
City:  Bergen, Norway
Name:Flesland
ICAO:ENBR
IATA:BGO

Details
Type:Airport (Aerodrome, Airfield)
Use:Public/Civil, International (customs port of entry)
Latitude:6017'36"N (60.293386)
Longitude:513'05"E (5.218142)
Datum:WGS 1984
Elevation:170 ft (52 m)
Variation:1.02E (WMM2015 magnetic declination)
0.18 annual change
Runways:1
Longest:9810 × 148 ft (2990 × 45 m), paved

Time
Time Zone:UTC+1 (DST+2)
Local Time:

Weather
METAR:ENBR 181150Z 12008KT 9999 FEW030 BKN130 02/M05 Q1015 NOSIG RMK WIND 1200FT 14017KT
TAF:ENBR 180500Z 1806/1906 13008KT CAVOK PROB30
TEMPO 1818/1906 18015G25KT

Related Locations
Nearby:
Farthest:NZTB: 11301 mi / 18188 km
Terra Nova Bay [Mario Zucchelli Station], AQ

Find:

   beyond  
but within

Other Information
Maps:
NOTAMs:
Links:
Sources:

  
  • flag of Norway
  

Airport Diagram

Airport diagram for BGO

Larger airport diagram (OBSOLETE) from NGA

Sectional Chart

Flight Planning
at skyvector.com

Satellite Image

Google Maps Satellite view

 

Copyright © 2004-2018 Karl L. Swartz. All rights reserved.
The Great Circle Mapper name and logo are trademarks of the Great Circle Mapper.
All other trademarks mentioned herein belong to their respective owners.
Please see credits for attibutions and further copyright information.

  Follow gcmap on Facebook Follow gcmap on Twitter Follow gcmap on Google+ GCmap on LinkedIn

hCard Microformat

Geo Microformat